Location: Worth Mountain WMA
(34.9569°N, 81.4819°W)
Time: 00:47:31
(UTC-04:00)

SeaSat 1 - Pass Details

Date: 18 August 2017
Orbit: 745 x 747 km, 108.0° (Epoch: 23 September)

Event Time Altitude Azimuth Distance (km) Brightness Sun altitude
Rises 21:31:27 0° 17° (NNE) 3,195 5.9 -16.2°
Reaches altitude 10° 21:33:46 10° 13° (NNE) 2,268 5.1 -16.6°
Maximum altitude 21:38:30 49° 299° (WNW) 961 3.4 -17.4°
Drops below altitude 10° 21:43:13 10° 225° (SW) 2,257 5.1 -18.3°
Sets 21:45:32 0° 220° (SW) 3,177 5.8 -18.7°
